Prudhoe Bay, AK

4:23 AM AKST on December 10, 2016 (GMT -0900)
Deadhorse

Weather History for PASC - January, 2013

Change the Weather History Date:

Wednesday, January 16, 2013

  Actual Average Record
Temperature  
Mean Temperature -22 °F -  
Max Temperature -13 °F -6 °F 23 °F (2001)
Min Temperature -33 °F -18 °F -49 °F (1991)
Degree Days  
Heating Degree Days 88    
Moisture  
Dew Point -29 °F    
Average Humidity 75    
Maximum Humidity 78    
Minimum Humidity 69    
Precipitation  
Precipitation 0.00 in - - ()
Sea Level Pressure  
Sea Level Pressure 30.38 in    
Wind  
Wind Speed 10 mph (West)    
Max Wind Speed 13 mph    
Max Gust Speed -    
Visibility 9 miles    
Events Snow    
Averages and records for this station are not official NWS values.
T = Trace of Precipitation, MM = Missing Value Source: NWS Daily Summary

Daily Weather History Graph

Daily Weather History Graph

Search for Another Location

Airport or City:

Trip Planner

Search our weather history database for the weather conditions in past years. The results will help you decide how hot, cold, wet, or windy it might be!

Date:

Astronomy

Jan. 16, 2013 Rise Set
Actual Time 12:31 PM AKST 1:36 PM AKST
Civil Twilight 10:09 AM AKST 3:59 PM AKST
Nautical Twilight 8:37 AM AKST 5:30 PM AKST
Astronomical Twilight 7:22 AM AKST 6:46 PM AKST
Moon 10:20 AM AKST (1/16) No Moon Set
Length of Visible Light 5h 49m
Length of Day
1h 04m
Waxing Crescent, 29% of the Moon is Illuminated
Jan 16
Waxing Crescent
Jan 18
First Quarter
Jan 26
Full
Feb 3
Last Quarter
Feb 9
New

Hourly Weather History & Observations

Time (AKST) Temp. Windchill Dew Point Humidity Pressure Visibility Wind Dir Wind Speed Gust Speed Precip Events Conditions
12:53 AM -13.0 °F -28.6 °F -18.9 °F 75% 30.22 in 10.0 mi West 6.9 mph - N/A   Mostly Cloudy
1:53 AM -15.0 °F -33.7 °F -20.0 °F 78% 30.23 in 10.0 mi West 9.2 mph - N/A   Mostly Cloudy
2:53 AM -15.0 °F -33.7 °F -20.9 °F 75% 30.25 in 9.0 mi WNW 9.2 mph - N/A Snow Light Snow
3:53 AM -16.1 °F -35.0 °F -22.0 °F 74% 30.26 in 10.0 mi WNW 9.2 mph - N/A   Mostly Cloudy
4:53 AM -18.9 °F -38.6 °F -25.1 °F 74% 30.27 in 10.0 mi West 9.2 mph - N/A   Mostly Cloudy
5:53 AM -18.0 °F -38.6 °F -23.1 °F 78% 30.28 in 10.0 mi West 10.4 mph - N/A Snow Light Snow
6:53 AM -18.0 °F -38.6 °F -23.1 °F 78% 30.29 in 10.0 mi West 10.4 mph - N/A   Mostly Cloudy
7:53 AM -18.9 °F -39.8 °F -24.0 °F 78% 30.30 in 8.0 mi WNW 10.4 mph - N/A   Clear
8:53 AM -20.9 °F -42.2 °F -27.0 °F 73% 30.31 in 9.0 mi West 10.4 mph - N/A   Clear
9:53 AM -20.9 °F -43.3 °F -27.0 °F 73% 30.32 in 9.0 mi WNW 11.5 mph - N/A   Clear
10:53 AM -22.0 °F -43.6 °F -27.0 °F 77% 30.34 in 9.0 mi West 10.4 mph - N/A   Partly Cloudy
11:53 AM -22.0 °F -42.3 °F -27.9 °F 74% 30.37 in 9.0 mi WNW 9.2 mph - N/A   Scattered Clouds
12:53 PM -24.0 °F -46.0 °F -29.9 °F 74% 30.39 in 9.0 mi West 10.4 mph - N/A   Scattered Clouds
1:53 PM -24.0 °F -47.2 °F -29.9 °F 74% 30.40 in 9.0 mi WNW 11.5 mph - N/A   Clear
2:53 PM -26.0 °F -47.2 °F -31.0 °F 77% 30.41 in 9.0 mi West 9.2 mph - N/A   Clear
3:53 PM -27.9 °F -48.2 °F -33.0 °F 77% 30.41 in 10.0 mi West 8.1 mph - N/A   Scattered Clouds
4:53 PM -29.0 °F -52.3 °F -35.0 °F 73% 30.43 in 9.0 mi WSW 10.4 mph - N/A   Scattered Clouds
5:53 PM -29.0 °F -53.5 °F -34.1 °F 77% 30.43 in 10.0 mi West 11.5 mph - N/A   Partly Cloudy
6:53 PM -29.9 °F -54.6 °F - N/A% 30.45 in 10.0 mi West 11.5 mph - N/A   Mostly Cloudy
7:18 PM -27.4 °F -52.5 °F -34.6 °F 69% 30.44 in 8.0 mi West 12.7 mph - N/A   Mostly Cloudy
7:43 PM -27.4 °F -51.4 °F -32.8 °F 75% 30.45 in 4.0 mi West 11.5 mph - N/A   Haze
7:53 PM -27.9 °F -50.9 °F -34.1 °F 73% 30.46 in 8.0 mi West 10.4 mph - N/A   Overcast
8:07 PM -29.2 °F -52.5 °F -34.6 °F 75% 30.45 in 10.0 mi West 10.4 mph - N/A   Overcast
8:37 PM -29.2 °F -53.7 °F -34.6 °F 75% 30.45 in 10.0 mi West 11.5 mph - N/A   Scattered Clouds
8:44 PM -29.2 °F -53.7 °F -34.6 °F 75% 30.45 in 10.0 mi West 11.5 mph - N/A   Mostly Cloudy
8:53 PM -29.0 °F -52.3 °F -35.0 °F 73% 30.47 in 10.0 mi West 10.4 mph - N/A   Scattered Clouds
9:53 PM -32.1 °F -54.7 °F - N/A% 30.48 in 10.0 mi WSW 9.2 mph - N/A   Clear
10:53 PM -32.1 °F -56.1 °F - N/A% 30.48 in 10.0 mi WSW 10.4 mph - N/A   Clear
11:53 PM -33.0 °F -57.2 °F - N/A% 30.49 in 10.0 mi SW 10.4 mph - N/A   Clear